| time (UTC) | temp F | wind direction | speed MPH | gust MPH | rain 1hr in | rain 24hr in | rain mn in | humidity % | barometer mb |
| 20260505063404 | 71 | 68 | 3.0 | 5.0 | 0.04 | 1.54 | 1.49 | 94 | 1012.6 |
| 20260505062903 | 71 | 46 | 1.0 | 3.0 | 0.05 | 1.54 | 1.49 | 94 | 1012.6 |
| 20260505061904 | 70 | 6 | 0.0 | 6.0 | 0.11 | 1.54 | 1.49 | 95 | 1012.7 |
| 20260505061404 | 70 | 53 | 3.0 | 7.0 | 0.13 | 1.54 | 1.49 | 94 | 1012.7 |
| 20260505060903 | 71 | 65 | 2.0 | 5.0 | 0.13 | 1.53 | 1.48 | 94 | 1012.8 |
| 20260505060404 | 71 | 331 | 0.0 | 2.0 | 0.13 | 1.53 | 1.48 | 95 | 1012.8 |
| 20260505055904 | 71 | 46 | 1.0 | 2.0 | 0.14 | 1.53 | 1.48 | 95 | 1012.8 |
| 20260505055404 | 71 | 319 | 0.0 | 1.0 | 0.15 | 1.53 | 1.48 | 95 | 1012.8 |
| 20260505054904 | 70 | 320 | 0.0 | 1.0 | 0.17 | 1.53 | 1.48 | 95 | 1012.9 |
| 20260505054404 | 70 | 17 | 1.0 | 2.0 | 0.16 | 1.52 | 1.47 | 95 | 1012.9 |
| 20260505053904 | 70 | 342 | 0.0 | 2.0 | 0.15 | 1.51 | 1.46 | 95 | 1013.0 |
| 20260505053404 | 70 | 353 | 0.0 | 0.0 | 0.15 | 1.50 | 1.45 | 95 | 1013.2 |
| 20260505052904 | 70 | 42 | 1.0 | 5.0 | 0.14 | 1.49 | 1.44 | 95 | 1013.3 |
| 20260505052404 | 70 | 53 | 3.0 | 6.0 | 0.11 | 1.46 | 1.41 | 94 | 1013.5 |
| 20260505051404 | 71 | 355 | 1.0 | 3.0 | 0.07 | 1.41 | 1.36 | 94 | 1013.7 |
| 20260505050904 | 71 | 3 | 1.0 | 3.0 | 0.06 | 1.40 | 1.35 | 94 | 1013.6 |
| 20260505050404 | 70 | 340 | 0.0 | 1.0 | 0.06 | 1.40 | 1.35 | 94 | 1013.6 |
| 20260505040904 | 70 | 318 | 0.0 | 2.0 | 0.01 | 1.34 | 1.29 | 95 | 1014.2 |
| 20260505040404 | 70 | 27 | 1.0 | 2.0 | 0.01 | 1.34 | 1.29 | 95 | 1014.2 |
| 20260505035904 | 70 | 34 | 1.0 | 3.0 | 0.02 | 1.34 | 1.29 | 95 | 1014.2 |
| 20260505035404 | 70 | 349 | 1.0 | 9.0 | 0.04 | 1.34 | 1.29 | 96 | 1014.4 |
| 20260505034905 | 70 | 341 | 1.0 | 3.0 | 0.06 | 1.34 | 1.29 | 96 | 1014.4 |
| 20260505034404 | 70 | 332 | 0.0 | 1.0 | 0.12 | 1.34 | 1.29 | 96 | 1014.5 |
| 20260505033904 | 69 | 351 | 0.0 | 2.0 | 0.16 | 1.34 | 1.29 | 96 | 1014.6 |
| 20260505033405 | 69 | 332 | 0.0 | 1.0 | 0.20 | 1.34 | 1.29 | 96 | 1014.6 |
| 20260505031404 | 69 | 346 | 0.0 | 2.0 | 0.25 | 1.34 | 1.29 | 96 | 1014.7 |
| 20260505030904 | 69 | 5 | 1.0 | 3.0 | 0.25 | 1.33 | 1.28 | 96 | 1014.7 |
| 20260505025904 | 69 | 16 | 2.0 | 5.0 | 0.27 | 1.32 | 1.27 | 96 | 1014.8 |
| 20260505025404 | 69 | 327 | 0.0 | 3.0 | 0.25 | 1.30 | 1.25 | 96 | 1014.9 |
| 20260505024904 | 69 | 47 | 4.0 | 7.0 | 0.24 | 1.28 | 1.23 | 95 | 1015.0 |
| 20260505024404 | 69 | 59 | 3.0 | 6.0 | 0.18 | 1.22 | 1.17 | 95 | 1015.2 |
| 20260505023904 | 69 | 61 | 3.0 | 5.0 | 0.16 | 1.18 | 1.13 | 95 | 1015.2 |
| 20260505023404 | 69 | 346 | 1.0 | 3.0 | 0.13 | 1.14 | 1.09 | 96 | 1015.2 |
| 20260505022904 | 69 | 315 | 0.0 | 2.0 | 0.11 | 1.11 | 1.06 | 96 | 1015.1 |
| 20260505022404 | 69 | 11 | 1.0 | 3.0 | 0.11 | 1.10 | 1.05 | 95 | 1015.1 |
| 20260505021404 | 69 | 304 | 0.0 | 2.0 | 0.15 | 1.09 | 1.04 | 96 | 1014.9 |
| 20260505020904 | 69 | 1 | 2.0 | 6.0 | 0.20 | 1.08 | 1.03 | 95 | 1014.9 |
| 20260505015904 | 69 | 353 | 1.0 | 2.0 | 0.26 | 1.05 | 1.00 | 96 | 1014.9 |
| 20260505015404 | 69 | 318 | 0.0 | 0.0 | 0.31 | 1.05 | 1.00 | 96 | 1015.0 |
| 20260505013904 | 69 | 23 | 0.0 | 2.0 | 0.35 | 1.02 | 0.97 | 95 | 1015.1 |
| 20260505012904 | 69 | 348 | 0.0 | 1.0 | 0.35 | 1.00 | 0.95 | 95 | 1014.9 |
| 20260505012404 | 68 | 358 | 0.0 | 1.0 | 0.35 | 0.99 | 0.94 | 95 | 1015.0 |
| 20260505011904 | 68 | 28 | 0.0 | 3.0 | 0.35 | 0.98 | 0.93 | 95 | 1015.0 |
| 20260505011404 | 68 | 337 | 0.0 | 2.0 | 0.32 | 0.94 | 0.89 | 95 | 1015.0 |
| 20260505010904 | 68 | 14 | 3.0 | 7.0 | 0.28 | 0.88 | 0.83 | 95 | 1015.0 |
| 20260505010405 | 68 | 56 | 4.0 | 7.0 | 0.24 | 0.83 | 0.78 | 94 | 1014.9 |
| 20260505005904 | 68 | 60 | 4.0 | 8.0 | 0.20 | 0.79 | 0.74 | 94 | 1014.9 |
| 20260505005404 | 69 | 60 | 3.0 | 5.0 | 0.16 | 0.74 | 0.69 | 94 | 1014.9 |
| 20260505004904 | 69 | 57 | 1.0 | 3.0 | 0.14 | 0.72 | 0.67 | 94 | 1014.9 |
| 20260505004404 | 69 | 49 | 1.0 | 3.0 | 0.14 | 0.69 | 0.64 | 94 | 1014.8 |
| 20260505003904 | 69 | 339 | 1.0 | 2.0 | 0.12 | 0.67 | 0.62 | 94 | 1014.8 |
| 20260505003404 | 69 | 333 | 0.0 | 1.0 | 0.11 | 0.66 | 0.61 | 94 | 1014.6 |
| 20260505002903 | 69 | 326 | 0.0 | 3.0 | 0.10 | 0.65 | 0.60 | 94 | 1014.5 |
| 20260505001404 | 69 | 313 | 0.0 | 1.0 | 0.07 | 0.62 | 0.57 | 94 | 1014.5 |
| 20260505000904 | 69 | 349 | 1.0 | 3.0 | 0.06 | 0.60 | 0.55 | 94 | 1014.5 |
| 20260505000405 | 69 | 25 | 0.0 | 2.0 | 0.05 | 0.59 | 0.54 | 94 | 1014.4 |
| 20260504235404 | 69 | 352 | 0.0 | 2.0 | 0.05 | 0.58 | 0.53 | 94 | 1014.3 |
| 20260504234904 | 69 | 356 | 1.0 | 3.0 | 0.06 | 0.58 | 0.53 | 94 | 1014.1 |
| 20260504234404 | 69 | 37 | 1.0 | 5.0 | 0.04 | 0.55 | 0.50 | 94 | 1014.0 |
| 20260504233903 | 69 | 60 | 2.0 | 6.0 | 0.05 | 0.55 | 0.50 | 94 | 1013.9 |
| 20260504233404 | 70 | 315 | 0.0 | 1.0 | 0.05 | 0.55 | 0.50 | 94 | 1013.8 |
| 20260504232904 | 70 | 16 | 0.0 | 2.0 | 0.06 | 0.55 | 0.50 | 95 | 1013.8 |
| 20260504232404 | 70 | 22 | 1.0 | 2.0 | 0.07 | 0.55 | 0.50 | 94 | 1013.8 |
| 20260504231404 | 69 | 18 | 0.0 | 3.0 | 0.10 | 0.55 | 0.50 | 94 | 1013.8 |
| 20260504230904 | 70 | 60 | 1.0 | 6.0 | 0.11 | 0.54 | 0.49 | 95 | 1013.9 |
| 20260504230403 | 69 | 39 | 1.0 | 5.0 | 0.14 | 0.54 | 0.49 | 94 | 1013.8 |
| 20260504225904 | 69 | 50 | 2.0 | 5.0 | 0.18 | 0.54 | 0.49 | 94 | 1013.8 |
| 20260504225405 | 70 | 0 | 0.0 | 1.0 | 0.22 | 0.53 | 0.48 | 94 | 1013.9 |
| 20260504224404 | 70 | 333 | 1.0 | 3.0 | 0.34 | 0.51 | 0.46 | 94 | 1013.8 |
| 20260504223904 | 70 | 44 | 0.0 | 3.0 | 0.36 | 0.50 | 0.45 | 94 | 1013.8 |
| 20260504223404 | 69 | 343 | 1.0 | 3.0 | 0.36 | 0.50 | 0.45 | 94 | 1013.6 |
| 20260504222903 | 69 | 37 | 1.0 | 3.0 | 0.35 | 0.49 | 0.44 | 94 | 1013.7 |
| 20260504221904 | 70 | 320 | 0.0 | 1.0 | 0.33 | 0.47 | 0.42 | 93 | 1013.6 |
| 20260504221404 | 70 | 335 | 1.0 | 2.0 | 0.31 | 0.45 | 0.40 | 93 | 1013.6 |
| 20260504220904 | 70 | 335 | 0.0 | 1.0 | 0.29 | 0.43 | 0.38 | 93 | 1013.5 |
| 20260504220404 | 70 | 33 | 1.0 | 3.0 | 0.26 | 0.40 | 0.35 | 92 | 1013.5 |
| 20260504215904 | 70 | 343 | 0.0 | 1.0 | 0.22 | 0.36 | 0.31 | 92 | 1013.6 |
| 20260504215404 | 71 | 35 | 0.0 | 3.0 | 0.17 | 0.31 | 0.26 | 92 | 1013.7 |
| 20260504214904 | 71 | 358 | 0.0 | 1.0 | 0.11 | 0.25 | 0.20 | 91 | 1013.7 |
| 20260504214404 | 71 | 313 | 0.0 | 1.0 | 0.03 | 0.17 | 0.12 | 90 | 1013.7 |
| 20260504213904 | 71 | 317 | 0.0 | 1.0 | 0.00 | 0.14 | 0.09 | 90 | 1013.6 |
| 20260504213404 | 71 | 318 | 0.0 | 1.0 | 0.01 | 0.14 | 0.09 | 90 | 1013.4 |
| 20260504212905 | 71 | 328 | 0.0 | 1.0 | 0.01 | 0.14 | 0.09 | 90 | 1013.2 |
| 20260504212404 | 71 | 338 | 0.0 | 2.0 | 0.01 | 0.14 | 0.09 | 90 | 1013.1 |
| 20260504211904 | 71 | 337 | 0.0 | 3.0 | 0.01 | 0.14 | 0.09 | 89 | 1013.2 |
| 20260504205904 | 72 | 304 | 0.0 | 0.0 | 0.01 | 0.14 | 0.09 | 89 | 1013.2 |
| 20260504205404 | 72 | 305 | 0.0 | 1.0 | 0.01 | 0.14 | 0.09 | 89 | 1013.3 |
| 20260504204903 | 72 | 332 | 0.0 | 1.0 | 0.01 | 0.14 | 0.09 | 89 | 1013.2 |
| 20260504204404 | 72 | 313 | 0.0 | 0.0 | 0.01 | 0.14 | 0.09 | 89 | 1013.3 |
| 20260504203904 | 72 | 314 | 0.0 | 1.0 | 0.01 | 0.14 | 0.09 | 89 | 1013.2 |
| 20260504203404 | 72 | 314 | 0.0 | 1.0 | 0.01 | 0.14 | 0.09 | 89 | 1013.2 |
| 20260504202904 | 72 | 314 | 0.0 | 1.0 | 0.01 | 0.14 | 0.09 | 89 | 1013.1 |
| 20260504202404 | 72 | 311 | 0.0 | 1.0 | 0.00 | 0.13 | 0.08 | 89 | 1013.0 |
| 20260504201904 | 72 | 312 | 0.0 | 2.0 | 0.00 | 0.13 | 0.08 | 89 | 1012.9 |
| 20260504201404 | 72 | 34 | 1.0 | 3.0 | 0.00 | 0.13 | 0.08 | 89 | 1013.0 |
| 20260504195904 | 72 | 301 | 0.0 | 1.0 | 0.00 | 0.13 | 0.08 | 90 | 1013.0 |
| 20260504195404 | 72 | 358 | 0.0 | 1.0 | 0.01 | 0.13 | 0.08 | 90 | 1013.0 |
| 20260504194904 | 72 | 300 | 0.0 | 2.0 | 0.01 | 0.13 | 0.08 | 91 | 1013.1 |
| 20260504194404 | 72 | 255 | 1.0 | 3.0 | 0.01 | 0.13 | 0.08 | 91 | 1013.1 |
| 20260504193404 | 72 | 319 | 0.0 | 2.0 | 0.01 | 0.13 | 0.08 | 91 | 1012.9 |
| 20260504192404 | 72 | 310 | 0.0 | 2.0 | 0.01 | 0.13 | 0.08 | 91 | 1012.9 |
| 20260504191904 | 72 | 326 | 0.0 | 1.0 | 0.01 | 0.13 | 0.08 | 91 | 1012.9 |
| 20260504191404 | 72 | 348 | 0.0 | 1.0 | 0.01 | 0.13 | 0.08 | 91 | 1012.9 |
| 20260504190904 | 72 | 343 | 0.0 | 1.0 | 0.02 | 0.13 | 0.08 | 91 | 1012.9 |
| 20260504190404 | 72 | 311 | 0.0 | 1.0 | 0.02 | 0.13 | 0.08 | 91 | 1013.0 |
| 20260504185904 | 72 | 4 | 0.0 | 1.0 | 0.04 | 0.13 | 0.08 | 91 | 1013.0 |
| 20260504185404 | 72 | 60 | 1.0 | 5.0 | 0.04 | 0.12 | 0.07 | 91 | 1013.1 |
| 20260504184905 | 72 | 15 | 1.0 | 2.0 | 0.07 | 0.12 | 0.07 | 91 | 1013.2 |
| 20260504184405 | 72 | 2 | 0.0 | 5.0 | 0.07 | 0.12 | 0.07 | 91 | 1013.1 |
| 20260504183904 | 72 | 346 | 0.0 | 0.0 | 0.07 | 0.12 | 0.07 | 91 | 1013.2 |
| 20260504183404 | 72 | 39 | 1.0 | 3.0 | 0.07 | 0.12 | 0.07 | 92 | 1013.3 |
| 20260504182904 | 72 | 47 | 1.0 | 3.0 | 0.07 | 0.12 | 0.07 | 91 | 1013.2 |
| 20260504182404 | 72 | 355 | 0.0 | 3.0 | 0.07 | 0.12 | 0.07 | 91 | 1013.3 |
| 20260504181904 | 72 | 316 | 0.0 | 3.0 | 0.07 | 0.12 | 0.07 | 92 | 1013.3 |
| 20260504181404 | 73 | 6 | 2.0 | 5.0 | 0.07 | 0.12 | 0.07 | 91 | 1013.5 |
| 20260504180904 | 73 | 5 | 0.0 | 3.0 | 0.06 | 0.11 | 0.06 | 91 | 1013.8 |
| 20260504180404 | 73 | 23 | 0.0 | 3.0 | 0.06 | 0.11 | 0.06 | 90 | 1013.9 |
| 20260504175904 | 74 | 314 | 0.0 | 0.0 | 0.04 | 0.09 | 0.04 | 90 | 1013.9 |
| 20260504175404 | 74 | 10 | 0.0 | 0.0 | 0.03 | 0.08 | 0.03 | 89 | 1014.0 |
| 20260504174404 | 74 | 3 | 1.0 | 3.0 | 0.00 | 0.05 | 0.00 | 88 | 1014.0 |
| 20260504173905 | 74 | 349 | 1.0 | 3.0 | 0.00 | 0.05 | 0.00 | 88 | 1014.1 |
| 20260504173404 | 74 | 3 | 1.0 | 2.0 | 0.00 | 0.05 | 0.00 | 87 | 1014.0 |
| 20260504172904 | 74 | 43 | 2.0 | 5.0 | 0.00 | 0.05 | 0.00 | 87 | 1014.1 |
| 20260504172404 | 74 | 5 | 1.0 | 6.0 | 0.00 | 0.05 | 0.00 | 86 | 1014.1 |
| 20260504171903 | 74 | 325 | 0.0 | 1.0 | 0.00 | 0.05 | 0.00 | 86 | 1014.2 |
| 20260504171403 | 74 | 62 | 1.0 | 3.0 | 0.00 | 0.05 | 0.00 | 86 | 1014.2 |
| 20260504170904 | 74 | 48 | 1.0 | 2.0 | 0.00 | 0.05 | 0.00 | 86 | 1014.3 |
| 20260504160404 | 73 | 329 | 0.0 | 2.0 | 0.00 | 0.05 | 0.00 | 88 | 1014.4 |
| 20260504150904 | 73 | 328 | 0.0 | 3.0 | 0.01 | 0.09 | 0.05 | 92 | 1015.2 |
| 20260504150404 | 73 | 347 | 0.0 | 1.0 | 0.01 | 0.10 | 0.05 | 92 | 1015.2 |
| 20260504140904 | 74 | 28 | 0.0 | 3.0 | 0.00 | 0.17 | 0.04 | 92 | 1014.8 |
| 20260504140404 | 74 | 10 | 1.0 | 2.0 | 0.00 | 0.19 | 0.04 | 92 | 1014.7 |
| 20260504130404 | 74 | 317 | 0.0 | 0.0 | 0.00 | 0.37 | 0.04 | 92 | 1014.6 |
| 20260504081904 | 78 | 35 | 4.0 | 7.0 | 0.00 | 0.81 | 0.00 | 80 | 1013.5 |
| 20260504081404 | 78 | 23 | 2.0 | 7.0 | 0.00 | 0.81 | 0.00 | 80 | 1013.6 |
| 20260504080904 | 78 | 17 | 1.0 | 3.0 | 0.00 | 0.81 | 0.00 | 80 | 1013.7 |
| 20260504080404 | 78 | 8 | 3.0 | 8.0 | 0.00 | 0.82 | 0.00 | 79 | 1013.7 |
| 20260504070404 | 78 | 44 | 4.0 | 8.0 | 0.00 | 1.51 | 0.00 | 77 | 1014.7 |